Voltar ao catálogo

STARLINK-2699

AtivoComunicaçõesVLEO
NORAD 48433·PAYLOAD·🇺🇸 United States

Lançado May 9, 2021 de Cape Canaveral Space Force Station

Loading…

Próximas Passagens (próximas 24 horas)

TLE

AtualizadoSource: CelesTrak SupGP

Época: Sep 14, 2026, 21:38 UTC

1 48433C 21040F   26257.90187500 -.00030775  00000+0 -98963-3 0  2579
2 48433  53.1612 352.0697 0001161  86.5691 123.1748 15.31717929    10

Acompanhe STARLINK-2699 em tempo real com AllMySat

Download on the App Store